This is the latest recevied weather packets stored in our database for station/object K2BIG. If no packets are shown the sender has not sent any weather packets the latest 1 day(s).
| Time | Temp. | Humidity | Pressure | Rain* | Wind** | Luminosity | Snow |
|---|---|---|---|---|---|---|---|
| 1778034615 | 23.33° C | 50% | 1008.7 hPa | 0 mm | 1.79 m/s, 225° | - | - |
| 1778034315 | 23.33° C | 49% | 1008.7 hPa | 0 mm | 2.24 m/s, 203° | - | - |
| 1778034015 | 23.33° C | 49% | 1008.5 hPa | 0 mm | 1.79 m/s, 180° | - | - |
| 1778033715 | 23.33° C | 48% | 1008.5 hPa | 0 mm | 2.24 m/s, 203° | - | - |
| 1778033415 | 23.33° C | 49% | 1008.5 hPa | 0 mm | 1.79 m/s, 225° | - | - |
| 1778033115 | 23.33° C | 48% | 1008.4 hPa | 0 mm | 1.34 m/s, 180° | - | - |
| 1778032815 | 23.33° C | 47% | 1008.5 hPa | 0 mm | 1.34 m/s, 158° | - | - |
| 1778032515 | 23.33° C | 46% | 1008.4 hPa | 0 mm | 1.79 m/s, 203° | - | - |
| 1778032215 | 23.33° C | 46% | 1008.4 hPa | 0 mm | 1.34 m/s, 180° | - | - |
| 1778031915 | 23.33° C | 46% | 1008.4 hPa | 0 mm | 1.34 m/s, 180° | - | - |
| 1778031615 | 23.33° C | 46% | 1008.4 hPa | 0 mm | 1.34 m/s, 180° | - | - |
| 1778031315 | 23.33° C | 46% | 1008.3 hPa | 0 mm | 0.89 m/s, 203° | - | - |
| 1778031015 | 23.89° C | 45% | 1008.2 hPa | 0 mm | 1.34 m/s, 180° | - | - |
| 1778030715 | 23.89° C | 44% | 1008.2 hPa | 0 mm | 1.79 m/s, 180° | - | - |
| 1778030415 | 23.89° C | 44% | 1008.2 hPa | 0 mm | 1.34 m/s, 180° | - | - |
| 1778030128 | 23.89° C | 44% | 1008 hPa | 0 mm | 2.24 m/s, 203° | - | - |
| 1778029815 | 23.89° C | 45% | 1008 hPa | 0 mm | 1.34 m/s, 203° | - | - |
| 1778029515 | 23.89° C | 44% | 1007.9 hPa | 0 mm | 1.79 m/s, 203° | - | - |
| 1778029215 | 23.89° C | 44% | 1007.7 hPa | 0 mm | 1.34 m/s, 203° | - | - |
| 1778028915 | 23.33° C | 44% | 1007.7 hPa | 0 mm | 1.79 m/s, 180° | - | - |
| 1778028615 | 23.33° C | 45% | 1007.7 hPa | 0 mm | 0.89 m/s, 180° | - | - |
| 1778028315 | 23.33° C | 45% | 1007.7 hPa | 0 mm | 0.89 m/s, 180° | - | - |
| 1778028015 | 23.33° C | 44% | 1007.6 hPa | 0 mm | 1.34 m/s, 180° | - | - |
| 1778027715 | 23.89° C | 45% | 1007.6 hPa | 0 mm | 0.45 m/s, 180° | - | - |
| 1778027415 | 23.89° C | 45% | 1007.6 hPa | 0 mm | 1.34 m/s, 180° | - | - |
* Rain latest hour (hover to see other rain measurements)
** Current wind speed in m/s (hover to see current wind gust speed)